Location: Kumla
(59.1265°N, 15.1401°E)
Time: 21:36:14
(UTC+01:00)

Transit 2A - Pass Details

Date: 08 December 2023
Orbit: 600 x 953 km, 66.7° (Epoch: 24 February)

Event Time Altitude Azimuth Distance (km) Brightness Sun altitude
Rises 17:40:54 0° 262° (W) 3,033 10.8 -18.1°
Reaches altitude 10° 17:43:25 10° 270° (W) 2,072 9.4 -18.4°
Maximum altitude 17:47:46 39° 339° (NNW) 941 6.5 -18.9°
Enters shadow 17:49:24 29° 25° (NNE) 1,155 6.6 -19.1°
Drops below altitude 10° 17:51:55 10° 50° (NE) 1,968 - -19.5°
Sets 17:54:15 0° 58° (ENE) 2,861 - -19.7°
